Regional Weather Roundup
Issued by NWS

Home | Current Version | Previous Version | Graphics & Text | Print | Product List | Glossary On
Versions: 1 2 3 4 5 6 7 8 9 10 11 12 13 14 15 16 17 18 19 20 21 22 23 24 25 26 27 28 29 30 31 32 33 34 35 36 37 38 39 40 41 42 43 44 45 46 47 48 49 50
000
ASUS45 KTFX 262204
RWRMT
MONTANA HOURLY WEATHER ROUNDUP
NATIONAL WEATHER SERVICE GREAT FALLS MT
304 PM MST THU FEB 26 2015

NOTE: "FAIR" INDICATES FEW OR NO CLOUDS BELOW 12000 FEET WITH NO
SIGNIFICANT WEATHER AND/OR OBSTRUCTIONS TO VISIBILITY.

* THESE STATIONS ARE NOT UNDER NWS QUALITY CONTROL. THEY DO NOT
   REPORT WEATHER SUCH AS PRECIPITATION OR FOG.

MTZ001>007-043-262300-
WEST OF THE DIVIDE
CITY           SKY/WX    TMP DP  RH WIND       PRES   REMARKS
KALISPELL      SUNNY     36  16  44 N5        30.08F WCI  32
MISSOULA       SUNNY     36  16  44 E9        30.07F WCI  29
BUTTE          PTCLDY    23  12  63 S16       30.00F WCI  10
MULLAN PASS    LGT SNOW  27  18  69 CALM      29.94F
* ANACONDA     PTCLDY    19  16  88 N5         N/A   WCI  12
* ESSEX        N/A       31  11  43 SE4        N/A
* LINCOLN      N/A       28   7  41 NE6G14     N/A   WCI  21
* LOOKOUT PASS N/A       34  17  50 NW3        N/A
* POLSON       N/A       36  19  50 NW3        N/A
* RONAN APT    SUNNY     36  21  54 W6         N/A   WCI  31
* SEELEY LAKE  N/A       33   9  36 NW3G10     N/A
* THOMP F APT  PTCLDY    31  10  41 W8G16      N/A   WCI  24
$$

MTZ008-052>055-262300-
SOUTHWEST MONTANA
CITY           SKY/WX    TMP DP  RH WIND       PRES   REMARKS
BOZEMAN        CLOUDY    21  10  62 CALM      30.12F
DILLON         SUNNY     27  12  53 NE13      30.00F WCI  16
* W YELLOWSTON SUNNY     30   7  38 W3G8       N/A
* THREE FORKS  PTCLDY    23  14  68 N/A        N/A
* BOULDER HILL N/A       15   5  64 N6         N/A   WCI   6
* MONIDA PASS  N/A       24  10  55 N11G17     N/A   WCI  13
* RAYNOLDS PAS N/A       10 -34  11 N14        N/A   WCI  -6
* WHITEHALL    N/A       25   8  48 E12G23     N/A   WCI  14
* WISE RIVER   N/A       25  12  58 SE14G20    N/A   WCI  13
$$

MTZ009>010-012-014-046-048-049-054-262300-
EAST SLOPES AND CENTRAL MONTANA
CITY           SKY/WX    TMP DP  RH WIND       PRES   REMARKS
CUT BANK       CLOUDY    12   7  80 S16       30.19F WCI  -5
GREAT FALLS    SUNNY     16   9  74 E9        30.22F WCI   5
HELENA         SUNNY     25   9  50 CALM      30.15F
* DEARBORN     N/A       16   7  67 VRB7       N/A   WCI   6
* EAST GLACIER N/A        7   3  83 SE2        N/A
* MONARCH      N/A       13   0  56 E5         N/A   WCI   5
* PENDROY      N/A       11   7  84 S13        N/A   WCI  -4
* ROGERS PASS  N/A       15   6  67 SW1        N/A
* SWEET GRASS  N/A       13   6  73 S21G28     N/A   WCI  -5
$$

MTZ011-013-016-021-035-040-045-047-050-051-262300-
NORTH CENTRAL MONTANA
CITY           SKY/WX    TMP DP  RH WIND       PRES   REMARKS
HAVRE          SUNNY     19   1  45 NE7       30.34F WCI  10
LEWISTOWN      SUNNY     12   3  67 E8        30.22F
* N BAR RANCH  SUNNY     10   0  64 S9        30.23F WCI  -3
* CHESTER      N/A       14   4  64 SE8G16     N/A   WCI   3
* DENTON       N/A       15   1  54 SE11G16    N/A   WCI   2
* GEYSER       N/A       13   2  61 E9         N/A   WCI   1
* JUDITH GAP   N/A        9   3  76 S13        N/A   WCI  -7
* LOMA         N/A       15   6  67 E13G19     N/A   WCI   1
$$

MTZ017>020-022>027-061-062-262300-
NORTHEAST MONTANA
CITY           SKY/WX    TMP DP  RH WIND       PRES   REMARKS
GLASGOW        SUNNY     10  -8  43 SE9       30.47F WCI  -3
GLENDIVE       SUNNY     12  -2  53 W3        30.48S
JORDAN         SUNNY     12  -6  44 VRB3      30.43F
SIDNEY         SUNNY     12  -4  48 N6        30.55S WCI   2
WOLF POINT     SUNNY     14  -8  36 NW3       30.52F
* BEAVER HILL  N/A       10  -6  48 NW6G11     N/A
* CIRCLE       N/A       15  -1  49 N/A        N/A
* LINDSAY DVD  N/A       11  -4  50 S1G6       N/A
* NAVAJO       N/A       11  -5  48 W3         N/A
* SACO         N/A       14  -7  38 SE9        N/A   WCI   2
$$

MTZ028>042-056>058-262300-
SOUTHCENTRAL AND SOUTHEAST MONTANA
CITY           SKY/WX    TMP DP  RH WIND       PRES   REMARKS
BAKER          SUNNY     10  -2  58 VRB3      30.42F
BILLINGS       PTCLDY    14   1  56 SE8       30.30F WCI   3
LIVINGSTON     CLOUDY    16   3  56 E16       30.16F WCI   1
MILES CITY     SUNNY     14   0  53 VRB3      30.44F
* LAUREL APT   PTCLDY    12  -2  53 NE7        N/A   WCI   1
* ROUNDUP APT  SUNNY     16   0  49 N/A        N/A
* ALZADA       N/A        7  -6  55 NW4        N/A
* HYSHAM       N/A       11  -3  53 E4         N/A
* LAME DEER    N/A        3  -3  76 SE6        N/A   WCI  -8
* REED POINT   N/A       14   6  70 E10        N/A   WCI   1
$$

REGIONAL REPORTS...DAKOTAS
CITY           SKY/WX    TMP DP  RH WIND       PRES   REMARKS
WILLISTON      SUNNY      9  -6  50 NW9       30.54F WCI  -4
DICKINSON      SUNNY     10  -2  58 NW7       30.43F WCI  -1
BEACH          SUNNY     10  -2  58 NE6       30.44F
CROSBY         SUNNY      5  -4  66 NW7       30.54F WCI  -7
WATFORD CITY   SUNNY      9  -4  55 NW3       30.50F
BISMARCK       SUNNY     10  -4  53 NW13      30.53F WCI  -5
GRAND FORKS    SUNNY      9  -2  61 NW14      30.52F WCI  -7
FARGO          SUNNY      9  -4  55 NW10      30.53F WCI  -5
BUFFALO SD     SUNNY     10  -4  53 VRB3      30.34F
RAPID CITY     SUNNY      9  -2  61 N14       30.39S WCI  -7
$$

REGIONAL REPORTS...WYOMING/IDAHO/WASHINGTON
CITY           SKY/WX    TMP DP  RH WIND       PRES   REMARKS
GILLETTE       SUNNY     10  -2  58 NE5       30.25F WCI   1
SHERIDAN       CLOUDY    10   0  64 VRB3      30.28F
CODY           PTSUNNY   12   7  80 N12       30.13F WCI  -2
YELLOWSTONE LA PTCLDY    21   1  41 VRB5      29.89S WCI  14
SALMON         CLOUDY    37  19  48 SW6       29.96F WCI  32
MULLAN PASS    LGT SNOW  27  18  69 CALM      29.94S
SAND POINT     CLOUDY    41  27  58 SW3       30.06F
SPOKANE        PTSUNNY   43  30  60 N3        30.03F

$$



USA.gov is the U.S. government's official web portal to all federal, state and local government web resources and services.